Crestview, FL

9:28 PM CDT on May 27, 2018 (GMT -0500)
Sikes

Weather History for KCEW - March, 2013

Change the Weather History Date:

Friday, March 1, 2013

  Actual Average Record
Temperature  
Mean Temperature 47 °F -  
Max Temperature 55 °F 71 °F 84 °F (2012)
Min Temperature 39 °F 45 °F 19 °F (2002)
Degree Days  
Heating Degree Days 18    
Moisture  
Dew Point 30 °F    
Average Humidity 55    
Maximum Humidity 76    
Minimum Humidity 33    
Precipitation  
Precipitation 0.00 in - - ()
Sea Level Pressure  
Sea Level Pressure 30.08 in    
Wind  
Wind Speed 6 mph (NNW)    
Max Wind Speed 13 mph    
Max Gust Speed -    
Visibility 10 miles    
Events      
Averages and records for this station are not official NWS values.
T = Trace of Precipitation, MM = Missing Value Source: NWS Daily Summary

Daily Weather History Graph

Daily Weather History Graph

Search for Another Location

Airport or City:

Astronomy

Mar. 01, 2013 Rise Set
Actual Time 6:12 AM CST 5:44 PM CST
Civil Twilight 5:48 AM CST 6:09 PM CST
Nautical Twilight 5:20 AM CST 6:37 PM CST
Astronomical Twilight 4:52 AM CST 7:05 PM CST
Moon 9:55 PM CST (3/1) 8:18 AM CST (3/1)
Length of Visible Light 12h 21m
Length of Day
11h 32m
Waning Gibbous, 83% of the Moon is Illuminated
Mar 1
Waning Gibbous
Mar 4
Last Quarter
Mar 11
New
Mar 19
First Quarter
Mar 27
Full

Hourly Weather History & Observations

Time (CST) Temp. Windchill Dew Point Humidity Pressure Visibility Wind Dir Wind Speed Gust Speed Precip Events Conditions
12:53 AM 46.0 °F 42.5 °F 32.0 °F 58% 30.09 in 10.0 mi NNW 6.9 mph - N/A   Clear
2:53 AM 43.0 °F 38.8 °F 28.9 °F 58% 30.07 in 10.0 mi North 6.9 mph - N/A   Clear
3:53 AM 39.9 °F 36.7 °F 30.0 °F 68% 30.06 in 10.0 mi North 4.6 mph - N/A   Clear
4:53 AM 39.0 °F 35.7 °F 30.9 °F 73% 30.08 in 10.0 mi NNW 4.6 mph - N/A   Clear
5:53 AM 39.0 °F 36.8 °F 32.0 °F 76% 30.09 in 10.0 mi NNW 3.5 mph - N/A   Clear
6:53 AM 39.0 °F 35.7 °F 30.9 °F 73% 30.10 in 10.0 mi NNW 4.6 mph - N/A   Clear
7:53 AM 42.1 °F 39.2 °F 30.0 °F 62% 30.13 in 10.0 mi NNW 4.6 mph - N/A   Clear
8:53 AM 44.1 °F 40.1 °F 27.0 °F 51% 30.13 in 10.0 mi NNW 6.9 mph - N/A   Clear
9:53 AM 48.0 °F - 27.0 °F 44% 30.12 in 10.0 mi North 8.1 mph - N/A   Clear
10:53 AM 50.0 °F - 28.0 °F 43% 30.11 in 10.0 mi NW 8.1 mph - N/A   Clear
11:53 AM 51.1 °F - 28.0 °F 41% 30.08 in 10.0 mi NNW 6.9 mph - N/A   Clear
12:53 PM 52.0 °F - 28.9 °F 41% 30.05 in 10.0 mi NNW 3.5 mph - N/A   Mostly Cloudy
1:53 PM 55.0 °F - 28.0 °F 35% 30.03 in 10.0 mi NNW 10.4 mph - N/A   Scattered Clouds
2:53 PM 55.9 °F - 27.0 °F 33% 30.02 in 10.0 mi WNW 12.7 mph - N/A   Mostly Cloudy
3:53 PM 55.0 °F - 27.0 °F 34% 30.01 in 10.0 mi WNW 10.4 mph - N/A   Scattered Clouds
4:53 PM 55.0 °F - 28.0 °F 35% 30.02 in 10.0 mi NW 10.4 mph - N/A   Overcast
5:53 PM 51.1 °F - 30.0 °F 44% 30.03 in 10.0 mi Calm Calm - N/A   Partly Cloudy
6:53 PM 46.0 °F 44.8 °F 33.1 °F 61% 30.05 in 10.0 mi North 3.5 mph - N/A   Clear
8:53 PM 41.0 °F - 33.1 °F 73% 30.10 in 10.0 mi Calm Calm - N/A   Partly Cloudy
9:53 PM 43.0 °F 38.8 °F 32.0 °F 65% 30.12 in 10.0 mi NNW 6.9 mph - N/A   Mostly Cloudy
10:53 PM 41.0 °F 35.8 °F 30.9 °F 67% 30.13 in 10.0 mi NNW 8.1 mph - N/A   Clear
11:53 PM 39.0 °F 34.8 °F 28.0 °F 65% 30.14 in 10.0 mi NNW 5.8 mph - N/A   Clear